Temperature
20 21 21 22 22 20 20 19 19 20 20 20 20 20 20 21 21 21 21 22 22 22 22 22 22 21 21 21 21 21 21 20 20 20 20 19 19 19 18 18 18 18 17 17
20 21 21 22 22 21 21 20 20 20 20 20 20 20 20 20 21 21 21 21 22 22 22 22 21 21 21 21 21 20 20 20 20 20 19 19 19 19 18 18 18 17 17 17
19 19 21 21 21 21 21 20 20 20 20 19 19 19 20 20 21 21 21 22 22 22 22 21 21 21 21 21 20 20 20 20 20 19 19 19 18 18 18 18 18 17 17 17
16 19 20 20 20 21 20 20 19 19 19 19 19 20 21 21 21 21 21 22 22 22 21 21 21 21 21 20 20 20 20 19 19 19 19 18 18 18 18 18 17 17 17 17
15 18 19 20 20 20 20 19 19 18 19 19 20 20 20 21 21 21 21 22 22 22 21 21 21 21 20 20 20 20 20 19 19 18 18 18 18 18 17 17 17 17 17 16
15 18 19 20 20 20 20 19 19 18 18 18 19 18 19 21 21 21 21 21 21 22 21 21 21 20 20 20 20 19 19 19 18 18 18 18 18 17 17 17 17 16 16 16
16 17 17 18 19 20 20 19 19 19 18 18 18 19 20 20 20 20 21 21 21 21 21 20 20 20 20 19 19 19 19 18 18 18 17 17 17 17 17 16 16 16 16 16
14 17 17 17 17 18 18 18 19 19 19 19 19 19 20 20 20 20 20 20 21 20 20 20 20 19 19 19 19 19 18 18 18 17 17 17 17 16 16 16 16 15 15 15
14 15 16 16 17 18 18 18 18 18 19 19 19 19 19 19 19 19 19 19 20 20 20 19 19 19 19 19 19 18 18 18 17 17 17 16 16 16 16 15 15 15 15 15
13 14 15 16 17 17 18 18 18 18 19 19 19 18 18 18 18 19 19 19 19 19 19 19 18 18 18 18 18 18 17 17 17 17 16 16 16 16 15 15 15 14 14 14
13 14 15 17 17 17 17 18 18 18 18 18 18 18 18 18 18 18 18 18 18 18 18 18 18 18 18 18 17 17 17 17 16 16 16 16 15 15 15 15 14 14 14 14
13 14 14 16 17 17 17 17 17 17 17 18 18 18 18 18 18 18 17 17 17 18 18 18 17 17 17 17 17 16 16 16 16 16 15 15 15 14 14 14 14 14 14 13
16 16 16 16 17 17 17 17 17 17 17 17 17 17 17 17 17 17 17 17 17 17 17 17 17 17 17 17 16 16 16 15 15 15 15 15 14 14 14 13 13 13 13 13
16 16 16 16 16 16 16 16 16 16 16 16 17 17 17 17 17 17 17 16 16 16 16 16 16 16 16 16 16 15 15 15 15 14 14 14 14 14 13 13 13 13 13 13
16 16 16 16 16 16 16 16 16 16 16 16 16 16 16 16 16 16 16 16 16 15 16 16 15 15 15 15 15 15 15 15 14 14 14 14 13 13 13 13 13 12 12 12
15 15 15 15 15 15 15 15 15 15 15 15 15 16 16 16 15 15 15 15 15 15 15 15 15 15 15 14 14 14 14 14 14 14 13 13 13 13 12 12 12 12 12 12
14 14 15 15 15 15 15 15 15 15 15 15 15 15 15 15 15 15 14 14 14 15 15 15 14 14 14 14 14 13 13 13 13 13 13 13 12 12 12 12 12 12 11 11
14 15 15 15 15 15 14 14 14 14 14 14 14 14 14 14 14 14 14 14 14 14 14 14 14 14 14 14 13 13 13 13 13 13 12 12 12 12 12 12 12 11 11 11
14 14 14 14 14 14 14 14 14 14 14 14 14 14 14 14 13 13 14 14 14 14 14 14 13 13 13 13 13 13 13 13 12 12 12 12 12 11 11 11 11 11 11 11
13 14 14 14 14 14 14 14 14 14 14 14 13 13 13 13 13 13 13 13 13 13 13 13 13 13 13 13 13 12 12 12 12 12 11 11 11 11 11 11 11 11 11 11
13 13 13 13 13 13 13 13 13 13 13 13 13 13 13 13 13 13 13 13 13 13 13 13 13 12 12 12 12 12 12 12 12 11 11 11 11 11 11 11 10 10 10 10
13 13 13 13 13 13 13 13 13 13 13 12 12 12 12 12 12 13 13 13 13 13 12 12 12 12 12 12 12 11 11 11 11 11 11 11 11 11 10 10 10 10 10 10
13 13 13 12 12 12 12 12 12 12 12 12 12 12 12 12 12 12 12 12 12 12 12 12 12 12 11 11 11 11 11 11 11 11 11 10 10 10 10 10 10 10 9 9
12 12 12 12 12 12 12 12 12 12 12 12 12 12 12 12 12 12 12 12 12 12 11 11 11 11 11 11 11 11 11 11 11 10 10 10 10 10 10 10 9 9 9 9
12 12 12 11 11 11 11 11 11 11 11 11 11 11 11 11 11 11 11 11 11 11 11 11 11 11 11 11 11 10 10 10 10 10 10 10 10 10 9 9 9 9 9 8
11 11 11 11 11 11 11 11 11 11 11 11 11 11 11 11 11 11 11 11 11 11 11 11 11 10 10 10 10 10 10 10 10 10 10 9 9 9 9 9 9 8 8 8
11 11 11 11 11 11 11 11 11 11 11 11 11 11 11 11 11 11 11 11 11 10 10 10 10 10 10 10 10 10 9 9 9 9 9 9 9 9 9 9 8 8 8 8
Wind_Speed
4 4 3 4 4 6 6 8 8 8 7 9 7 5 4 3 2 3 3 3 5 5 5 5 5 5 5 5 5 5 5 5 6 5 4 4 4 3 3 3 3 3 3 3
2 3 2 3 4 5 5 4 5 4 7 7 4 1 2 3 4 5 4 4 4 5 5 6 6 5 4 4 4 5 5 5 4 3 4 4 4 4 3 3 3 2 3 3
3 4 2 5 5 5 4 4 6 7 7 3 2 3 4 5 6 6 6 5 5 5 6 6 6 6 6 5 4 5 5 4 4 4 4 4 4 3 4 4 3 3 3 3
2 1 5 8 3 4 4 3 3 4 4 3 4 3 3 3 5 5 4 5 5 5 6 5 5 4 4 3 4 4 4 4 3 4 4 3 3 3 3 3 3 3 2 2
4 4 6 6 1 2 3 4 3 3 4 3 1 3 3 2 3 4 4 4 4 5 6 4 4 4 4 3 3 4 4 4 4 4 4 4 3 3 2 2 1 2 1 2
4 4 7 7 4 2 3 4 3 2 3 2 2 0 5 3 2 2 2 2 2 3 4 4 4 5 5 4 4 4 5 5 5 5 5 4 4 3 2 2 2 1 1 2
4 5 7 5 5 1 4 7 3 2 3 4 4 5 4 2 2 2 2 2 2 3 3 4 4 5 5 4 5 5 4 4 4 5 5 4 3 3 3 2 2 1 1 1
4 4 7 3 1 3 5 3 2 2 3 4 4 3 2 1 1 1 1 1 2 3 2 2 3 5 5 5 5 3 3 3 4 4 4 4 4 3 3 3 3 1 1 1
7 6 4 2 3 4 2 3 3 2 2 2 2 2 2 1 1 1 1 1 1 2 2 1 3 4 5 4 3 2 2 3 3 3 3 4 5 4 3 3 3 2 2 1
2 5 5 4 3 3 2 3 3 2 2 2 3 3 2 1 0 0 1 1 1 2 1 1 1 3 4 3 3 3 3 3 3 4 3 3 3 4 4 3 3 3 2 2
4 6 5 4 3 4 4 4 3 2 1 1 2 2 2 2 1 1 1 1 1 2 2 2 1 1 2 3 3 4 3 3 3 3 3 3 2 2 3 3 5 5 4 4
6 6 4 5 4 3 3 3 3 2 3 2 1 2 2 2 2 2 2 1 1 2 2 1 1 1 1 2 4 4 3 2 2 3 3 3 3 1 2 1 2 4 5 5
7 5 5 6 4 2 3 4 3 2 2 2 2 2 2 2 2 1 1 1 2 2 2 2 1 1 1 2 3 4 4 3 2 3 3 3 3 3 1 2 4 2 1 2
6 3 4 5 4 3 3 3 3 3 2 1 1 1 1 1 1 2 2 2 1 1 1 1 1 1 1 1 3 3 3 3 3 3 3 3 3 3 3 2 1 2 2 1
6 5 6 4 3 3 2 2 1 3 4 3 1 1 1 2 2 2 1 0 1 0 0 1 1 1 0 1 3 3 3 3 3 3 3 2 2 2 2 2 1 1 1 1
4 3 3 3 3 3 2 2 2 3 3 3 2 2 1 1 2 1 1 2 2 1 1 1 1 1 2 2 2 2 2 3 3 3 3 3 3 3 2 2 2 2 2 1
4 4 4 4 4 4 4 4 3 3 3 2 2 2 0 1 1 0 1 0 1 0 0 1 1 1 2 3 3 2 2 2 3 2 3 3 3 3 3 3 3 3 3 3
6 6 6 5 5 4 4 3 2 3 3 2 1 0 1 2 2 2 1 1 1 2 2 1 1 2 2 3 3 3 3 3 3 3 3 3 3 3 3 3 3 3 3 2
2 3 3 3 3 3 2 2 2 3 2 1 2 2 2 2 2 2 1 1 0 2 3 2 1 2 2 3 3 2 3 2 2 2 2 2 2 2 2 3 3 3 3 2
1 1 2 2 2 2 2 2 2 2 2 1 2 1 1 1 1 1 1 1 2 3 2 1 0 1 1 2 3 2 3 3 3 2 2 2 2 2 2 2 2 3 3 3
1 1 1 1 2 2 2 2 2 2 1 1 2 2 2 2 1 1 1 1 3 1 0 1 1 1 1 2 3 3 3 3 3 3 2 2 2 2 1 1 2 2 2 2
1 1 2 1 1 2 2 2 2 2 1 1 0 1 1 1 1 0 1 2 2 0 0 1 1 1 2 2 2 2 3 3 2 2 2 2 2 2 2 2 2 2 2 2
1 1 1 1 2 2 1 1 1 1 1 1 1 1 1 1 1 1 1 2 0 1 1 0 1 2 3 2 2 2 2 3 2 2 2 2 2 2 2 2 2 2 2 2
1 1 0 1 1 1 0 1 1 1 0 0 1 1 1 1 1 1 1 0 1 1 1 1 2 3 3 2 2 2 2 2 2 2 2 2 2 2 2 2 2 2 2 2
2 1 1 1 1 1 2 1 0 0 1 1 1 1 0 1 1 1 0 1 1 2 1 1 2 3 3 2 2 2 1 2 2 2 2 2 2 2 2 2 2 2 2 2
2 1 2 2 2 2 2 1 1 0 0 0 1 1 1 0 0 0 1 1 2 2 1 1 1 2 2 2 2 1 1 1 1 1 2 2 2 2 2 2 2 2 2 2
1 0 0 1 1 1 1 2 2 2 2 2 1 0 0 1 1 1 2 1 1 1 1 1 1 1 1 1 1 1 0 0 1 1 1 1 2 2 2 2 2 2 2 2
Wind_Direction
231 242 212 216 214 189 188 188 189 224 227 255 263 247 238 215 187 170 168 169 180 186 183 178 177 181 183 184 183 182 184 196 209 217 217 218 217 219 221 219 225 221 218 223
282 282 269 255 242 201 206 194 206 228 255 259 271 253 223 205 188 193 196 191 189 185 180 181 184 190 189 191 185 173 183 204 205 199 209 214 213 207 209 222 226 218 217 218
244 292 8 265 236 205 204 207 183 213 235 253 270 236 219 208 199 199 199 197 195 195 192 193 189 186 192 194 180 176 192 202 197 194 202 212 209 197 208 219 215 219 224 218
161 98 226 244 246 186 189 220 221 233 244 237 235 250 248 210 196 207 204 195 199 201 198 197 186 180 185 168 167 181 195 205 207 203 208 206 195 203 212 208 214 227 232 229
142 191 262 287 256 157 180 251 236 234 258 259 347 7 318 268 206 206 211 209 205 200 194 186 178 172 159 163 168 180 196 201 202 204 206 198 196 213 213 190 216 241 247 237
145 174 226 242 269 247 142 267 262 205 226 231 101 302 271 281 252 220 208 209 205 183 170 175 185 166 160 176 179 197 203 200 196 196 199 196 195 197 185 173 202 213 268 264
176 210 254 267 292 91 167 243 269 215 214 186 195 222 247 275 265 208 190 195 174 157 169 187 175 158 164 180 201 210 198 185 186 193 192 188 182 182 171 173 168 165 201 289
160 195 248 298 60 173 223 263 273 253 229 209 221 242 250 249 234 139 111 163 148 141 175 194 167 158 173 202 215 199 180 178 184 185 181 171 166 176 172 168 166 182 198 306
191 213 244 263 232 254 242 263 277 278 264 207 217 234 237 226 216 202 189 196 160 148 161 211 188 173 187 219 203 166 167 181 182 173 171 169 170 173 172 175 179 198 207 238
261 266 272 289 300 314 294 272 282 270 230 176 207 231 239 234 266 258 208 206 157 133 153 248 238 204 207 212 179 162 176 185 179 171 170 166 170 176 179 189 194 203 214 228
261 277 309 315 317 307 313 327 339 342 330 222 183 228 220 208 215 207 195 202 163 161 191 233 246 237 213 192 168 169 182 187 181 177 170 164 161 179 192 206 200 200 215 216
231 234 217 255 268 288 305 310 308 331 349 343 199 228 233 221 219 212 202 208 182 166 176 210 210 243 230 188 171 170 181 188 180 174 165 158 151 97 47 168 192 199 205 209
233 240 227 251 269 275 281 293 306 301 281 287 269 216 213 226 231 206 196 199 197 200 193 180 176 254 268 199 173 173 177 180 173 174 175 172 171 165 149 40 51 68 133 182
240 232 255 254 256 269 278 288 304 310 304 280 249 222 183 193 225 206 211 231 226 197 182 157 156 259 269 185 165 167 166 167 168 176 177 174 177 174 169 163 114 25 17 48
259 233 231 251 269 279 277 276 326 330 327 339 337 284 201 196 208 228 226 182 129 121 184 146 147 269 298 156 165 165 161 167 165 166 166 164 163 160 164 166 165 159 21 7
264 265 240 240 254 270 277 278 288 303 309 309 317 308 284 227 204 211 197 166 152 172 216 164 212 236 136 125 144 150 148 164 163 160 162 160 163 169 176 180 189 205 217 231
225 247 250 252 255 261 260 253 252 269 284 280 282 298 308 130 129 198 260 215 157 186 225 208 229 231 166 150 150 165 165 171 169 169 179 183 185 191 194 195 207 223 234 229
218 224 229 227 229 239 257 263 260 267 266 250 242 224 197 185 192 219 257 0 36 6 319 265 215 185 173 162 156 167 173 177 179 185 191 194 195 196 198 201 212 226 242 239
241 232 238 237 224 218 238 257 266 268 269 216 191 207 221 222 211 221 204 118 213 265 276 272 217 181 171 167 160 160 165 170 174 182 191 192 196 200 204 207 214 223 229 228
285 261 234 244 241 219 234 255 263 281 278 220 185 170 190 266 244 225 210 244 256 252 242 249 235 180 170 162 151 150 157 167 178 183 182 185 197 207 217 220 220 224 230 229
272 263 235 225 249 258 249 242 230 238 240 169 172 190 216 254 260 212 148 292 300 299 195 165 169 178 162 155 146 149 156 162 173 178 178 182 188 198 206 210 214 212 220 227
256 248 244 221 214 265 278 261 212 195 180 153 194 207 209 250 269 333 272 247 273 276 125 143 150 150 144 132 135 146 155 158 164 164 169 177 183 197 212 213 210 214 223 221
277 252 243 214 214 243 279 274 246 217 198 197 213 223 216 225 210 176 287 300 279 103 87 158 154 138 130 120 127 139 151 157 168 178 187 192 191 193 203 208 213 217 218 217
270 274 265 177 137 126 190 262 276 260 201 196 219 203 169 140 341 291 235 164 80 88 63 101 127 125 124 126 132 138 148 160 174 187 187 185 184 185 189 196 207 213 207 208
250 210 161 140 142 198 213 229 57 68 69 49 18 1 328 198 216 253 171 131 118 103 70 72 99 105 111 122 130 137 144 163 179 182 178 180 187 190 196 204 212 215 208 211
248 230 227 226 219 216 202 177 182 262 90 22 331 320 330 43 126 131 97 105 107 98 81 72 94 106 106 110 117 129 142 144 166 187 186 185 191 200 209 212 217 223 223 223
245 241 299 327 311 249 197 180 187 209 207 185 180 277 101 94 90 89 93 96 99 95 93 95 114 126 119 115 122 138 164 179 177 182 192 194 197 209 219 225 229 225 223 224
Height
1501 1497 1497 1497 1498 1500 1504 1507 1513 1507 1505 1494 1489 1487 1486 1487 1488 1489 1489 1491 1492 1494 1496 1499 1500 1502 1503 1504 1506 1507 1509 1510 1510 1512 1513 1514 1515 1515 1516 1516 1516 1515 1515 1515
1501 1497 1496 1497 1494 1495 1497 1498 1501 1500 1499 1487 1486 1485 1485 1486 1486 1487 1488 1490 1491 1493 1495 1496 1498 1499 1501 1502 1503 1505 1506 1507 1508 1509 1509 1510 1511 1512 1512 1512 1512 1512 1512 1512
1510 1501 1498 1503 1494 1493 1493 1491 1494 1498 1492 1486 1486 1484 1484 1483 1484 1485 1487 1488 1490 1491 1492 1494 1495 1497 1498 1500 1501 1502 1503 1504 1505 1506 1506 1507 1508 1508 1508 1509 1509 1509 1508 1508
1512 1508 1514 1498 1485 1485 1488 1488 1488 1487 1485 1484 1484 1483 1483 1482 1483 1484 1485 1486 1488 1489 1491 1492 1493 1494 1496 1497 1498 1499 1499 1500 1501 1503 1503 1504 1504 1504 1504 1505 1505 1505 1505 1505
1516 1514 1507 1492 1484 1484 1488 1489 1484 1485 1483 1483 1482 1482 1482 1482 1482 1483 1484 1485 1486 1487 1488 1489 1490 1491 1493 1494 1495 1495 1496 1497 1498 1499 1500 1500 1500 1501 1501 1501 1502 1502 1502 1502
1512 1510 1511 1493 1481 1480 1484 1490 1482 1482 1482 1482 1482 1487 1483 1480 1480 1481 1482 1483 1484 1485 1486 1487 1488 1489 1490 1490 1491 1492 1492 1493 1494 1496 1496 1496 1497 1498 1498 1498 1498 1499 1499 1499
1508 1506 1499 1485 1480 1480 1494 1490 1480 1479 1479 1480 1480 1481 1479 1479 1478 1479 1480 1481 1482 1483 1484 1484 1485 1486 1486 1487 1487 1488 1489 1489 1490 1492 1493 1494 1494 1495 1495 1495 1496 1496 1496 1496
1507 1506 1500 1483 1481 1485 1484 1479 1478 1477 1477 1477 1477 1477 1476 1476 1477 1477 1478 1479 1479 1480 1481 1482 1483 1483 1483 1484 1484 1485 1485 1486 1487 1488 1489 1490 1491 1492 1492 1493 1493 1493 1493 1492
1495 1493 1484 1481 1481 1480 1479 1478 1477 1476 1476 1475 1475 1475 1474 1474 1475 1475 1476 1477 1478 1478 1479 1480 1480 1481 1481 1481 1482 1482 1483 1483 1484 1485 1486 1487 1487 1488 1489 1490 1490 1490 1490 1489
1490 1484 1481 1479 1479 1478 1478 1477 1475 1474 1474 1474 1473 1473 1473 1473 1473 1473 1474 1475 1476 1477 1477 1477 1478 1478 1479 1479 1480 1480 1480 1481 1481 1482 1483 1483 1484 1485 1486 1486 1487 1487 1487 1487
1487 1482 1479 1478 1477 1477 1476 1475 1474 1473 1473 1472 1471 1471 1472 1471 1471 1472 1472 1473 1474 1474 1475 1476 1476 1476 1477 1477 1477 1477 1477 1478 1479 1479 1480 1481 1482 1483 1483 1484 1485 1484 1484 1484
1484 1479 1479 1477 1476 1476 1475 1474 1473 1472 1471 1471 1471 1470 1470 1470 1470 1470 1471 1471 1472 1472 1473 1473 1474 1474 1475 1475 1475 1475 1475 1475 1476 1477 1478 1479 1479 1480 1481 1482 1482 1482 1482 1482
1477 1476 1476 1475 1475 1474 1474 1473 1472 1471 1470 1469 1469 1469 1469 1468 1469 1469 1468 1469 1469 1470 1470 1470 1471 1471 1472 1472 1473 1473 1473 1473 1474 1475 1475 1476 1477 1478 1478 1479 1480 1480 1480 1480
1474 1474 1473 1472 1472 1472 1472 1471 1470 1469 1468 1467 1467 1467 1467 1467 1467 1467 1466 1467 1467 1468 1467 1468 1468 1469 1470 1470 1470 1470 1471 1471 1472 1473 1473 1474 1475 1476 1476 1477 1477 1478 1479 1479
1471 1471 1470 1470 1470 1470 1470 1469 1468 1467 1466 1465 1465 1465 1464 1464 1463 1464 1464 1465 1465 1465 1465 1466 1466 1467 1468 1468 1468 1468 1469 1469 1470 1471 1472 1473 1474 1474 1475 1475 1475 1475 1476 1477
1468 1468 1467 1467 1467 1467 1467 1467 1466 1465 1465 1464 1463 1463 1462 1462 1462 1463 1463 1463 1463 1463 1463 1464 1465 1465 1465 1466 1466 1466 1467 1468 1469 1469 1470 1471 1472 1472 1473 1473 1474 1474 1474 1474
1464 1464 1464 1464 1464 1465 1465 1465 1464 1464 1463 1463 1462 1462 1461 1461 1461 1460 1460 1461 1461 1461 1462 1462 1462 1464 1464 1464 1464 1465 1466 1467 1467 1468 1468 1469 1469 1470 1470 1471 1472 1472 1472 1473
1460 1460 1461 1462 1462 1462 1462 1462 1462 1462 1462 1461 1461 1461 1460 1459 1458 1458 1458 1459 1459 1459 1460 1460 1461 1461 1462 1462 1463 1464 1464 1464 1465 1466 1467 1467 1467 1468 1468 1468 1469 1470 1470 1470
1456 1457 1458 1459 1460 1460 1459 1460 1460 1460 1460 1459 1459 1459 1458 1457 1457 1457 1457 1457 1457 1457 1458 1459 1459 1459 1460 1460 1461 1462 1462 1462 1463 1464 1465 1465 1465 1465 1466 1466 1466 1466 1467 1467
1454 1455 1456 1456 1457 1458 1458 1458 1458 1458 1458 1458 1458 1457 1457 1456 1456 1456 1456 1456 1456 1456 1456 1457 1457 1457 1457 1458 1459 1459 1460 1460 1461 1462 1462 1463 1463 1463 1464 1464 1463 1464 1464 1465
1453 1453 1454 1454 1455 1456 1456 1456 1456 1456 1456 1456 1456 1456 1455 1455 1455 1455 1454 1454 1455 1455 1455 1456 1456 1456 1456 1456 1457 1457 1458 1458 1459 1460 1460 1461 1461 1461 1461 1461 1461 1462 1462 1462
1452 1452 1452 1452 1453 1453 1454 1454 1454 1454 1454 1454 1454 1454 1454 1453 1453 1453 1453 1453 1454 1454 1454 1454 1454 1454 1454 1455 1455 1455 1456 1457 1457 1458 1458 1459 1459 1459 1459 1460 1460 1460 1460 1460
1450 1450 1450 1450 1450 1451 1452 1452 1452 1452 1452 1451 1452 1452 1452 1452 1452 1452 1452 1452 1452 1452 1452 1452 1453 1453 1453 1453 1454 1454 1454 1455 1456 1456 1457 1457 1457 1457 1457 1457 1457 1458 1458 1458
1449 1448 1448 1449 1449 1450 1450 1450 1451 1451 1450 1450 1451 1451 1451 1451 1451 1452 1452 1451 1451 1451 1452 1452 1452 1452 1452 1452 1453 1453 1453 1453 1454 1454 1455 1455 1455 1455 1455 1455 1455 1455 1455 1455
1447 1447 1447 1448 1447 1447 1448 1448 1449 1449 1449 1449 1450 1450 1451 1451 1451 1451 1451 1451 1451 1451 1451 1452 1452 1452 1452 1452 1452 1452 1452 1452 1453 1453 1453 1453 1453 1453 1454 1454 1454 1454 1453 1453
1446 1446 1446 1446 1446 1446 1447 1447 1447 1447 1447 1448 1449 1449 1450 1450 1451 1451 1450 1451 1451 1451 1451 1451 1451 1451 1451 1451 1451 1452 1452 1452 1452 1452 1452 1452 1452 1452 1452 1452 1452 1452 1451 1451
1444 1444 1445 1444 1445 1445 1445 1446 1446 1446 1447 1447 1448 1449 1449 1450 1450 1450 1450 1450 1450 1451 1451 1451 1451 1451 1451 1451 1451 1451 1451 1451 1451 1450 1450 1450 1450 1450 1450 1450 1450 1449 1449 1448